����,���ϕ���(m/s),���ϕ���,�ő�u�ԕ���(m/s),�ő啗��������,�C��(��),���x(%),10���Ԉړ��ώZ�J��(mm),1���Ԉړ��ώZ�J��(mm),���J��(mm),�݌v�J��(mm)
2024-02-05T00:00:00+09:00,1,���k��,1.7,��,2.4,90,0,0,0.5,0.5
2024-02-05T00:01:00+09:00,1,���k��,1.7,��,2.5,89.8,0,0,0,0.5
2024-02-05T00:02:00+09:00,1,���k��,1.7,��,2.5,89.6,0,0,0,0.5
2024-02-05T00:03:00+09:00,1,���k��,1.7,��,2.5,89.6,0,0,0,0.5
2024-02-05T00:04:00+09:00,0.9,���k��,1.7,��,2.5,89.5,0,0,0,0.5
2024-02-05T00:05:00+09:00,0.9,���k��,1.7,��,2.5,89.6,0,0,0,0.5
2024-02-05T00:06:00+09:00,1,��,1.7,��,2.5,89.9,0,0,0,0.5
2024-02-05T00:07:00+09:00,1,��,1.7,��,2.5,89.6,0,0,0,0.5
2024-02-05T00:08:00+09:00,1,��,1.7,��,2.5,89.6,0,0,0,0.5
2024-02-05T00:09:00+09:00,1,��,1.7,��,2.5,89.4,0,0,0,0.5
2024-02-05T00:10:00+09:00,1,��,1.7,��,2.5,89.5,0,0,0,0.5
2024-02-05T00:11:00+09:00,1.1,��,1.7,��,2.6,88.7,0,0,0,0.5
2024-02-05T00:12:00+09:00,1.1,��,1.7,��,2.6,88.8,0,0,0,0.5
2024-02-05T00:13:00+09:00,1.2,��,1.7,��,2.6,88.7,0,0,0,0.5
2024-02-05T00:14:00+09:00,1.2,��,1.7,��,2.6,88.7,0,0,0,0.5
2024-02-05T00:15:00+09:00,1.2,��,1.7,��,2.5,88.9,0,0,0,0.5
2024-02-05T00:16:00+09:00,1.3,��,1.8,��,2.5,89.3,0,0,0,0.5
2024-02-05T00:17:00+09:00,1.3,��,2,���k��,2.5,89.7,0,0,0,0.5
2024-02-05T00:18:00+09:00,1.3,��,2.5,��,2.4,90.1,0,0,0,0.5
2024-02-05T00:19:00+09:00,1.4,��,2.5,��,2.4,90.5,0,0,0,0.5
2024-02-05T00:20:00+09:00,1.4,���k��,2.5,��,2.4,90.8,0,0,0,0.5
2024-02-05T00:21:00+09:00,1.4,���k��,2.5,��,2.4,91.1,0,0,0,0.5
2024-02-05T00:22:00+09:00,1.5,���k��,2.5,��,2.4,90.9,0,0,0,0.5
2024-02-05T00:23:00+09:00,1.5,���k��,2.5,��,2.4,90.7,0,0,0,0.5
2024-02-05T00:24:00+09:00,1.5,���k��,2.5,��,2.4,90.8,0,0,0,0.5
2024-02-05T00:25:00+09:00,1.5,���k��,2.5,��,2.5,90.4,0,0,0,0.5
2024-02-05T00:26:00+09:00,1.5,���k��,2.5,��,2.5,89.7,0,0,0,0.5
2024-02-05T00:27:00+09:00,1.5,���k��,2.5,��,2.5,89.3,0,0,0,0.5
2024-02-05T00:28:00+09:00,1.4,���k��,2.4,���k��,2.5,89.2,0,0,0,0.5
2024-02-05T00:29:00+09:00,1.3,���k��,2,��,2.5,89.3,0,0,0,0.5
2024-02-05T00:30:00+09:00,1.3,���k��,1.9,���k��,2.4,89.4,0,0,0,0.5
2024-02-05T00:31:00+09:00,1.2,���k��,1.8,���k��,2.4,89.6,0,0,0,0.5
2024-02-05T00:32:00+09:00,1.3,���k��,1.8,���k��,2.5,89.6,0,0,0,0.5
2024-02-05T00:33:00+09:00,1.2,���k��,1.8,���k��,2.4,89.5,0,0,0,0.5
2024-02-05T00:34:00+09:00,1.2,���k��,1.8,��,2.5,89.4,0,0,0,0.5
2024-02-05T00:35:00+09:00,1.2,���k��,2,��,2.5,89.1,0,0,0,0.5
2024-02-05T00:36:00+09:00,1.3,���k��,2.1,��,2.5,89,0,0,0,0.5
2024-02-05T00:37:00+09:00,1.3,��,2.2,��,2.4,89.1,0,0,0,0.5
2024-02-05T00:38:00+09:00,1.4,��,2.2,��,2.5,89.1,0,0,0,0.5
2024-02-05T00:39:00+09:00,1.3,��,2.2,��,2.6,88.8,0,0,0,0.5
2024-02-05T00:40:00+09:00,1.3,��,2.2,��,2.5,88.6,0,0,0,0.5
2024-02-05T00:41:00+09:00,1.3,��,2.2,��,2.5,88.6,0,0,0,0.5
2024-02-05T00:42:00+09:00,1.3,��,2.2,��,2.5,88.7,0,0,0,0.5
2024-02-05T00:43:00+09:00,1.3,��,2.2,��,2.4,89.1,0,0,0,0.5
2024-02-05T00:44:00+09:00,1.3,��,2.2,��,2.4,89.3,0,0,0,0.5
2024-02-05T00:45:00+09:00,1.3,��,2.2,��,2.3,89.8,0,0,0,0.5
2024-02-05T00:46:00+09:00,1.3,��,2.2,��,2.3,90.1,0,0,0,0.5
2024-02-05T00:47:00+09:00,1.3,��,2.1,��,2.3,90.4,0,0,0,0.5
2024-02-05T00:48:00+09:00,1.3,��,2.3,���k��,2.3,90.5,0,0,0,0.5
2024-02-05T00:49:00+09:00,1.4,��,2.3,���k��,2.5,90.1,0,0,0,0.5
2024-02-05T00:50:00+09:00,1.6,��,2.3,���k��,2.5,89.4,0,0,0,0.5
2024-02-05T00:51:00+09:00,1.6,��,2.3,���k��,2.7,88.3,0,0,0,0.5
2024-02-05T00:52:00+09:00,1.6,���k��,2.3,���k��,2.7,87.5,0,0,0,0.5
2024-02-05T00:53:00+09:00,1.6,���k��,2.3,���k��,2.8,86.8,0,0,0,0.5
2024-02-05T00:54:00+09:00,1.6,���k��,2.3,���k��,2.8,86.6,0,0,0,0.5
2024-02-05T00:55:00+09:00,1.7,���k��,2.7,��,2.7,86.6,0,0,0,0.5
2024-02-05T00:56:00+09:00,1.8,���k��,2.8,��,2.6,87.1,0,0,0,0.5
2024-02-05T00:57:00+09:00,1.7,���k��,2.8,��,2.6,87.7,0,0,0,0.5
2024-02-05T00:58:00+09:00,1.7,���k��,2.8,��,2.6,87.9,0,0,0,0.5
2024-02-05T00:59:00+09:00,1.7,���k��,2.8,��,2.5,88.4,0,0,0,0.5
2024-02-05T01:00:00+09:00,1.6,���k��,2.8,��,2.5,89,0,0,0,0.5
2024-02-05T01:01:00+09:00,1.7,���k��,2.8,��,2.5,89.6,0,0,0,0.5
2024-02-05T01:02:00+09:00,1.7,���k��,2.8,��,2.5,89.4,0,0,0,0.5
2024-02-05T01:03:00+09:00,1.7,���k��,2.8,��,2.5,89.6,0,0,0,0.5
2024-02-05T01:04:00+09:00,1.7,���k��,2.8,��,2.4,90,0,0,0,0.5
2024-02-05T01:05:00+09:00,1.5,���k��,2.8,��,2.4,90.6,0,0,0,0.5
2024-02-05T01:06:00+09:00,1.4,�k��,2.5,���k��,2.5,91,0,0,0,0.5
2024-02-05T01:07:00+09:00,1.5,�k��,3.1,�k�k��,2.6,90.7,0,0,0,0.5
2024-02-05T01:08:00+09:00,1.6,�k��,3.1,�k�k��,2.6,90,0,0,0,0.5
2024-02-05T01:09:00+09:00,1.6,�k��,3.1,�k�k��,2.7,89.5,0,0,0,0.5
2024-02-05T01:10:00+09:00,1.6,�k��,3.1,�k�k��,2.8,88.8,0,0,0,0.5
2024-02-05T01:11:00+09:00,1.6,�k�k��,3.1,�k�k��,3,87.5,0,0,0,0.5
2024-02-05T01:12:00+09:00,1.5,�k�k��,3.1,�k�k��,3,87.4,0,0,0,0.5
2024-02-05T01:13:00+09:00,1.4,�k�k��,3.1,�k�k��,3,86.7,0,0,0,0.5
2024-02-05T01:14:00+09:00,1.4,�k�k��,3.1,�k�k��,3,86.3,0,0,0,0.5
2024-02-05T01:15:00+09:00,1.4,�k�k��,3.1,�k�k��,2.9,86.5,0,0,0,0.5
2024-02-05T01:16:00+09:00,1.5,�k�k��,3.1,�k�k��,3.2,85,0,0,0,0.5
2024-02-05T01:17:00+09:00,1.4,�k�k��,2.6,�k��,3.4,83.2,0,0,0,0.5
2024-02-05T01:18:00+09:00,1.3,�k�k��,2.6,�k��,3.4,82.3,0,0,0,0.5
2024-02-05T01:19:00+09:00,1.2,�k�k��,2.3,�k,3.4,82,0,0,0,0.5
2024-02-05T01:20:00+09:00,1.1,�k�k��,2.3,�k,3.5,80.4,0,0,0,0.5
2024-02-05T01:21:00+09:00,1,�k�k��,2.3,�k,3.5,80.3,0,0,0,0.5
2024-02-05T01:22:00+09:00,1,�k�k��,2.3,�k,3.6,80.3,0,0,0,0.5
2024-02-05T01:23:00+09:00,1,�k�k��,2.3,�k,3.6,79.4,0,0,0,0.5
2024-02-05T01:24:00+09:00,1,�k��,2.3,�k,3.3,81.6,0,0,0,0.5
2024-02-05T01:25:00+09:00,,,,,,,,,,
2024-02-05T01:26:00+09:00,0.8,�k��,1.8,�k�k��,3.4,81,0,0,0,0.5
2024-02-05T01:27:00+09:00,0.8,���k��,1.5,�k�k��,3.3,81.9,0,0,0,0.5
2024-02-05T01:28:00+09:00,0.7,���k��,1.5,�k�k��,3.4,81.6,0,0,0,0.5
2024-02-05T01:29:00+09:00,0.7,��,1.3,���k��,3.5,81.1,0,0,0,0.5
2024-02-05T01:30:00+09:00,0.6,��,1.3,���k��,3.5,80.9,0,0,0,0.5
2024-02-05T01:31:00+09:00,0.6,��,1.2,���k��,3.5,81.3,0,0,0,0.5
2024-02-05T01:32:00+09:00,0.6,��,1.2,���k��,3.5,80.7,0,0,0,0.5
2024-02-05T01:33:00+09:00,0.6,��,1.2,���k��,3.5,81.3,0,0,0,0.5
2024-02-05T01:34:00+09:00,0.6,��,1.2,���k��,3.5,81,0,0,0,0.5
2024-02-05T01:35:00+09:00,0.7,���k��,1.6,�k�k��,3.4,82.4,0,0,0,0.5
2024-02-05T01:36:00+09:00,0.7,���k��,1.7,�k�k��,3.4,82.4,0,0,0,0.5
2024-02-05T01:37:00+09:00,0.7,���k��,1.7,�k�k��,3.4,82.3,0,0,0,0.5
2024-02-05T01:38:00+09:00,0.8,���k��,1.7,�k�k��,3.6,81.6,0,0,0,0.5
2024-02-05T01:39:00+09:00,0.9,�k��,1.7,�k�k��,3.5,81.6,0,0,0,0.5
2024-02-05T01:40:00+09:00,1,�k��,1.7,�k�k��,3.6,81.4,0,0,0,0.5
2024-02-05T01:41:00+09:00,1,�k��,1.7,�k�k��,3.6,81.2,0,0,0,0.5
2024-02-05T01:42:00+09:00,1,�k��,1.7,�k�k��,3.8,79.5,0,0,0,0.5
2024-02-05T01:43:00+09:00,1.1,�k��,1.7,�k�k��,3.8,79.4,0,0,0,0.5
2024-02-05T01:44:00+09:00,1.1,�k��,1.7,�k�k��,3.6,80.7,0,0,0,0.5
2024-02-05T01:45:00+09:00,1,�k��,1.7,�k�k��,3.6,81.6,0,0,0,0.5
2024-02-05T01:46:00+09:00,0.9,�k��,1.7,��,3.7,82,0,0,0,0.5
2024-02-05T01:47:00+09:00,0.8,���k��,1.7,��,3.5,82.3,0,0,0,0.5
2024-02-05T01:48:00+09:00,0.7,�k��,1.7,��,3.3,83.2,0,0,0,0.5
2024-02-05T01:49:00+09:00,0.7,�k��,1.7,��,3.3,83.3,0,0,0,0.5
2024-02-05T01:50:00+09:00,0.7,�k��,1.7,��,3.3,83.6,0,0,0,0.5
2024-02-05T01:51:00+09:00,0.8,�k��,1.7,��,3.3,84.4,0,0,0,0.5
2024-02-05T01:52:00+09:00,0.8,�k��,1.9,�k��,3.4,83.2,0,0,0,0.5
2024-02-05T01:53:00+09:00,0.9,�k�k��,2.6,�k�k��,3.7,80.4,0,0,0,0.5
2024-02-05T01:54:00+09:00,1,�k��,2.6,�k�k��,4.1,78.4,0,0,0,0.5
2024-02-05T01:55:00+09:00,1.1,�k��,2.6,�k�k��,4.1,77,0,0,0,0.5
2024-02-05T01:56:00+09:00,1.3,�k��,2.6,�k�k��,4.1,77.1,0,0,0,0.5
2024-02-05T01:57:00+09:00,1.4,�k��,2.6,�k�k��,4,77.2,0,0,0,0.5
2024-02-05T01:58:00+09:00,1.5,�k��,2.6,�k�k��,3.7,79.1,0,0,0,0.5
2024-02-05T01:59:00+09:00,1.5,�k��,2.6,�k�k��,3.7,79.9,0,0,0,0.5
2024-02-05T02:00:00+09:00,1.6,�k��,2.6,�k�k��,3.8,79,0,0,0,0.5
2024-02-05T02:01:00+09:00,1.7,�k��,2.6,�k�k��,3.8,78.7,0,0,0,0.5
2024-02-05T02:02:00+09:00,1.7,�k��,2.6,�k�k��,3.8,78.8,0,0,0,0.5
2024-02-05T02:03:00+09:00,1.7,�k��,2.4,�k�k��,3.8,79.4,0,0,0,0.5
2024-02-05T02:04:00+09:00,1.7,�k��,2.4,�k�k��,3.7,80.2,0,0,0,0.5
2024-02-05T02:05:00+09:00,1.7,�k��,2.4,�k�k��,3.7,80.3,0,0,0,0.5
2024-02-05T02:06:00+09:00,1.7,�k��,2.4,�k�k��,3.7,80.4,0,0,0,0.5
2024-02-05T02:07:00+09:00,1.7,�k��,2.5,�k��,3.7,80.2,0,0,0,0.5
2024-02-05T02:08:00+09:00,1.7,�k��,2.7,�k�k��,3.8,80,0,0,0,0.5
2024-02-05T02:09:00+09:00,1.7,�k��,2.7,�k�k��,3.9,79.3,0,0,0,0.5
2024-02-05T02:10:00+09:00,1.7,�k��,2.7,�k�k��,3.8,79.3,0,0,0,0.5
2024-02-05T02:11:00+09:00,1.6,�k��,2.7,�k�k��,3.8,79.5,0,0,0,0.5
2024-02-05T02:12:00+09:00,1.6,�k��,2.7,�k�k��,3.8,79.3,0,0,0,0.5
2024-02-05T02:13:00+09:00,1.6,�k��,2.7,�k�k��,3.9,79.2,0,0,0,0.5
2024-02-05T02:14:00+09:00,1.6,�k��,3.5,�k�k��,3.9,79,0,0,0,0.5
2024-02-05T02:15:00+09:00,1.6,�k��,3.5,�k�k��,3.9,78.9,0,0,0,0.5
2024-02-05T02:16:00+09:00,1.7,�k��,3.5,�k�k��,4,78.8,0,0,0,0.5
2024-02-05T02:17:00+09:00,1.7,�k��,3.5,�k�k��,3.9,78.8,0,0,0,0.5
2024-02-05T02:18:00+09:00,1.7,�k��,3.5,�k�k��,3.9,78.9,0,0,0,0.5
2024-02-05T02:19:00+09:00,1.8,�k��,3.5,�k�k��,4,78,0,0,0,0.5
2024-02-05T02:20:00+09:00,1.8,�k�k��,3.5,�k�k��,4,78.3,0,0,0,0.5
2024-02-05T02:21:00+09:00,1.9,�k�k��,3.5,�k�k��,4,78.3,0,0,0,0.5
2024-02-05T02:22:00+09:00,1.9,�k�k��,3.5,�k�k��,3.9,79.1,0,0,0,0.5
2024-02-05T02:23:00+09:00,1.9,�k�k��,3.5,�k�k��,3.9,79.4,0,0,0,0.5
2024-02-05T02:24:00+09:00,1.8,�k�k��,3.1,�k�k��,4.1,78,0,0,0,0.5
2024-02-05T02:25:00+09:00,1.9,�k�k��,3.4,�k,4.1,77.6,0,0,0,0.5
2024-02-05T02:26:00+09:00,1.9,�k�k��,3.5,�k�k��,4,78.7,0,0,0,0.5
2024-02-05T02:27:00+09:00,2,�k�k��,4.1,�k,3.9,79.5,0,0,0,0.5
2024-02-05T02:28:00+09:00,2,�k�k��,4.1,�k,3.8,80,0,0,0,0.5
2024-02-05T02:29:00+09:00,2,�k,4.1,�k,3.9,79.9,0,0,0,0.5
2024-02-05T02:30:00+09:00,1.9,�k,4.1,�k,3.9,79.7,0,0,0,0.5
2024-02-05T02:31:00+09:00,1.9,�k,4.1,�k,4.1,78.1,0,0,0,0.5
2024-02-05T02:32:00+09:00,1.9,�k,4.1,�k,4.1,78.4,0,0,0,0.5
2024-02-05T02:33:00+09:00,1.9,�k,4.1,�k,4.1,77.9,0,0,0,0.5
2024-02-05T02:34:00+09:00,1.9,�k,4.1,�k,4.1,77.9,0,0,0,0.5
2024-02-05T02:35:00+09:00,1.8,�k,4.1,�k,4.1,77.9,0,0,0,0.5
2024-02-05T02:36:00+09:00,1.7,�k,4.1,�k,4,78.2,0,0,0,0.5
2024-02-05T02:37:00+09:00,1.6,�k,3.4,�k,4,78.1,0,0,0,0.5
2024-02-05T02:38:00+09:00,1.5,�k�k��,2.9,�k,4.1,77.8,0,0,0,0.5
2024-02-05T02:39:00+09:00,1.4,�k�k��,2.9,�k,4.1,77.5,0,0,0,0.5
2024-02-05T02:40:00+09:00,1.3,�k�k��,2.9,�k,4.1,77.8,0,0,0,0.5
2024-02-05T02:41:00+09:00,1.1,�k�k��,2.9,�k,4.1,77.4,0,0,0,0.5
2024-02-05T02:42:00+09:00,1,�k�k��,2.9,�k,4.1,77.3,0,0,0,0.5
2024-02-05T02:43:00+09:00,0.9,�k�k��,2.9,�k,4.3,76.6,0,0,0,0.5
2024-02-05T02:44:00+09:00,0.8,�k�k��,2.9,�k,4.3,76.7,0,0,0,0.5
2024-02-05T02:45:00+09:00,0.8,�k�k��,2.9,�k,4.3,76.5,0,0,0,0.5
2024-02-05T02:46:00+09:00,0.7,�k�k��,2.1,�k,4.3,76,0,0,0,0.5
2024-02-05T02:47:00+09:00,0.7,�k�k��,1.8,�k,4.4,75.6,0,0,0,0.5
2024-02-05T02:48:00+09:00,0.6,�k�k��,1.8,�k,4.3,75.3,0,0,0,0.5
2024-02-05T02:49:00+09:00,0.6,�k�k��,1.8,�k,4.3,75.5,0,0,0,0.5
2024-02-05T02:50:00+09:00,0.6,�k�k��,1.8,�k,4.4,75.1,0,0,0,0.5
2024-02-05T02:51:00+09:00,0.7,�k�k��,1.8,�k,4.4,74.8,0,0,0,0.5
2024-02-05T02:52:00+09:00,0.7,�k�k��,1.8,�k,4.4,74.9,0,0,0,0.5
2024-02-05T02:53:00+09:00,0.8,�k�k��,1.8,�k,4.5,74.4,0,0,0,0.5
2024-02-05T02:54:00+09:00,0.9,�k��,2.4,�k��,4.6,73.8,0,0,0,0.5
2024-02-05T02:55:00+09:00,1,�k��,2.4,�k��,4.4,74.7,0,0,0,0.5
2024-02-05T02:56:00+09:00,1,�k��,2.4,�k��,4.3,75.9,0,0,0,0.5
2024-02-05T02:57:00+09:00,1,�k��,2.4,�k��,4.3,76.2,0,0,0,0.5
2024-02-05T02:58:00+09:00,1.1,�k�k��,2.4,�k��,4.3,76,0,0,0,0.5
2024-02-05T02:59:00+09:00,1.1,�k�k��,2.4,�k��,4.2,77,0,0,0,0.5
2024-02-05T03:00:00+09:00,1.2,�k�k��,2.4,�k��,4.1,77.9,0,0,0,0.5
2024-02-05T03:01:00+09:00,1.2,�k,2.4,�k��,4,78.9,0,0,0,0.5
2024-02-05T03:02:00+09:00,1.2,�k,2.4,�k��,4,79.3,0,0,0,0.5
2024-02-05T03:03:00+09:00,1.2,�k,2.4,�k��,4.1,79.5,0,0,0,0.5
2024-02-05T03:04:00+09:00,1.1,�k,2.2,�k�k��,4.1,78.7,0,0,0,0.5
2024-02-05T03:05:00+09:00,1.1,�k,2.2,�k�k��,4.2,78.3,0,0,0,0.5
2024-02-05T03:06:00+09:00,1.1,�k,2.2,�k�k��,4.1,78.5,0,0,0,0.5
2024-02-05T03:07:00+09:00,1,�k,2.2,�k�k��,4.2,78.9,0,0,0,0.5
2024-02-05T03:08:00+09:00,1,�k,2.2,�k�k��,4.2,78.9,0,0,0,0.5
2024-02-05T03:09:00+09:00,1,�k,2.2,�k�k��,4.2,78.6,0,0,0,0.5
2024-02-05T03:10:00+09:00,0.9,�k,1.8,�k,4.2,78.3,0,0,0,0.5
2024-02-05T03:11:00+09:00,0.9,�k,1.8,�k,4.2,78,0,0,0,0.5
2024-02-05T03:12:00+09:00,0.9,�k,1.5,�k,4.2,78.8,0,0,0,0.5
2024-02-05T03:13:00+09:00,0.9,�k,1.6,�k,4.2,78.6,0,0,0,0.5
2024-02-05T03:14:00+09:00,0.9,�k,2.1,�k��,4.3,77.1,0,0,0,0.5
2024-02-05T03:15:00+09:00,1,�k,2.1,�k��,4.3,77.1,0,0,0,0.5
2024-02-05T03:16:00+09:00,1,�k,2.1,�k��,4.3,77.5,0,0,0,0.5
2024-02-05T03:17:00+09:00,1.1,�k,2.1,�k��,4.3,76.9,0,0,0,0.5
2024-02-05T03:18:00+09:00,1.1,�k,2.1,�k��,4.3,77.3,0,0,0,0.5
2024-02-05T03:19:00+09:00,1.1,�k,2.1,�k��,4.3,77.1,0,0,0,0.5
2024-02-05T03:20:00+09:00,1.2,�k,2.6,�k�k��,4.3,77.6,0,0,0,0.5
2024-02-05T03:21:00+09:00,1.3,�k,2.7,�k,4.2,77.6,0,0,0,0.5
2024-02-05T03:22:00+09:00,1.5,�k,3.1,�k�k��,4.2,77.7,0,0,0,0.5
2024-02-05T03:23:00+09:00,1.6,�k,3.1,�k�k��,4.2,77.4,0,0,0,0.5
2024-02-05T03:24:00+09:00,1.7,�k,3.1,�k�k��,4.3,77.5,0,0,0,0.5
2024-02-05T03:25:00+09:00,1.7,�k,3.1,�k�k��,4.3,77,0,0,0,0.5
2024-02-05T03:26:00+09:00,1.8,�k,3.1,�k�k��,4.3,77.1,0,0,0,0.5
2024-02-05T03:27:00+09:00,1.9,�k,3.1,�k�k��,4.3,77.2,0,0,0,0.5
2024-02-05T03:28:00+09:00,1.9,�k,3.1,�k�k��,4.3,77.6,0,0,0,0.5
2024-02-05T03:29:00+09:00,2,�k,4.1,�k�k��,4.2,77.7,0,0,0,0.5
2024-02-05T03:30:00+09:00,2.1,�k,4.1,�k�k��,4.2,77.9,0,0,0,0.5
2024-02-05T03:31:00+09:00,2.1,�k,4.1,�k�k��,4.2,77.7,0,0,0,0.5
2024-02-05T03:32:00+09:00,2,�k,4.1,�k�k��,4.3,77.4,0,0,0,0.5
2024-02-05T03:33:00+09:00,1.9,�k,4.1,�k�k��,4.3,76.6,0,0,0,0.5
2024-02-05T03:34:00+09:00,2,�k,4.1,�k�k��,4.3,77.3,0,0,0,0.5
2024-02-05T03:35:00+09:00,2.1,�k,4.1,�k�k��,4.3,77.3,0,0,0,0.5
2024-02-05T03:36:00+09:00,2.1,�k,4.1,�k�k��,4.3,76.8,0,0,0,0.5
2024-02-05T03:37:00+09:00,2.1,�k�k��,4.1,�k�k��,4.4,75.7,0,0,0,0.5
2024-02-05T03:38:00+09:00,2.1,�k�k��,4.1,�k�k��,4.4,76.7,0,0,0,0.5
2024-02-05T03:39:00+09:00,2.3,�k�k��,4.2,�k�k��,4.3,77.2,0,0,0,0.5
2024-02-05T03:40:00+09:00,2.3,�k�k��,4.2,�k�k��,4.3,77.6,0,0,0,0.5
2024-02-05T03:41:00+09:00,2.4,�k�k��,4.2,�k�k��,4.2,77.7,0,0,0,0.5
2024-02-05T03:42:00+09:00,2.6,�k�k��,4.3,�k�k��,4.3,76.6,0,0,0,0.5
2024-02-05T03:43:00+09:00,2.7,�k�k��,4.3,�k�k��,4.4,75.6,0,0,0,0.5
2024-02-05T03:44:00+09:00,2.7,�k�k��,4.3,�k�k��,4.4,75.5,0,0,0,0.5
2024-02-05T03:45:00+09:00,2.7,�k�k��,4.3,�k�k��,4.4,75.7,0,0,0,0.5
2024-02-05T03:46:00+09:00,2.7,�k�k��,4.3,�k�k��,4.4,76.2,0,0,0,0.5
2024-02-05T03:47:00+09:00,2.6,�k,4.3,�k�k��,4.3,76.8,0,0,0,0.5
2024-02-05T03:48:00+09:00,2.6,�k,4.3,�k�k��,4.3,76.3,0,0,0,0.5
2024-02-05T03:49:00+09:00,2.6,�k,4.3,�k�k��,4.4,75.9,0,0,0,0.5
2024-02-05T03:50:00+09:00,2.5,�k,4.3,�k�k��,4.5,74.5,0,0,0,0.5
2024-02-05T03:51:00+09:00,2.4,�k,4.3,�k�k��,4.5,75.3,0,0,0,0.5
2024-02-05T03:52:00+09:00,2.3,�k,4,�k,4.4,75,0,0,0,0.5
2024-02-05T03:53:00+09:00,2.3,�k,3.9,�k,4.5,75.1,0,0,0,0.5
2024-02-05T03:54:00+09:00,2.4,�k�k��,3.9,�k,4.4,74.9,0,0,0,0.5
2024-02-05T03:55:00+09:00,2.4,�k�k��,3.9,�k,4.7,72.1,0,0,0,0.5
2024-02-05T03:56:00+09:00,2.4,�k�k��,3.9,�k,4.8,71,0,0,0,0.5
2024-02-05T03:57:00+09:00,2.4,�k�k��,3.9,�k,4.7,72.3,0,0,0,0.5
2024-02-05T03:58:00+09:00,2.4,�k�k��,4.1,�k��,4.6,72.5,0,0,0,0.5
2024-02-05T03:59:00+09:00,2.4,�k�k��,5.2,�k��,4.8,70.2,0,0,0,0.5
2024-02-05T04:00:00+09:00,2.6,�k�k��,5.8,�k�k��,4.8,71.1,0,0,0,0.5
2024-02-05T04:01:00+09:00,2.8,�k�k��,5.8,�k�k��,4.9,69.7,0,0,0,0.5
2024-02-05T04:02:00+09:00,2.8,�k�k��,5.8,�k�k��,5,69,0,0,0,0.5
2024-02-05T04:03:00+09:00,2.7,�k�k��,5.8,�k�k��,5,68.5,0,0,0,0.5
2024-02-05T04:04:00+09:00,2.8,�k�k��,5.8,�k�k��,5.1,67.7,0,0,0,0.5
2024-02-05T04:05:00+09:00,2.7,�k�k��,5.8,�k�k��,5.2,67.3,0,0,0,0.5
2024-02-05T04:06:00+09:00,2.8,�k�k��,5.8,�k�k��,5.1,67.4,0,0,0,0.5
2024-02-05T04:07:00+09:00,2.8,�k�k��,5.8,�k�k��,5.1,67.5,0,0,0,0.5
2024-02-05T04:08:00+09:00,2.7,�k�k��,5.8,�k�k��,5,67.6,0,0,0,0.5
2024-02-05T04:09:00+09:00,2.6,�k�k��,5.8,�k�k��,5.1,67.5,0,0,0,0.5
2024-02-05T04:10:00+09:00,2.4,�k��,5,�k�k��,5.1,67.5,0,0,0,0.5
2024-02-05T04:11:00+09:00,2.4,�k��,5.1,�k�k��,5.2,66.7,0,0,0,0.5
2024-02-05T04:12:00+09:00,2.4,�k��,5.1,�k�k��,5.3,65.4,0,0,0,0.5
2024-02-05T04:13:00+09:00,2.4,�k��,5.1,�k�k��,5.4,65.1,0,0,0,0.5
2024-02-05T04:14:00+09:00,2.2,�k��,5.1,�k�k��,5.2,66.2,0,0,0,0.5
2024-02-05T04:15:00+09:00,2.1,�k��,5.1,�k�k��,5.2,66.8,0,0,0,0.5
2024-02-05T04:16:00+09:00,2.1,�k��,5.1,�k�k��,5.2,66.6,0,0,0,0.5
2024-02-05T04:17:00+09:00,2.1,�k��,5.1,�k�k��,5.2,66.1,0,0,0,0.5
2024-02-05T04:18:00+09:00,2.2,�k��,5.1,�k�k��,5.1,67.2,0,0,0,0.5
2024-02-05T04:19:00+09:00,2.4,�k��,5.1,�k�k��,5.2,65.6,0,0,0,0.5
2024-02-05T04:20:00+09:00,2.5,�k��,5.1,�k�k��,5.3,65.9,0,0,0,0.5
2024-02-05T04:21:00+09:00,2.3,�k��,4.7,�k��,5.2,66,0,0,0,0.5
2024-02-05T04:22:00+09:00,2.4,�k��,5.2,��,5.2,66,0,0,0,0.5
2024-02-05T04:23:00+09:00,2.4,�k��,5.2,��,5.3,65,0,0,0,0.5
2024-02-05T04:24:00+09:00,2.5,�k��,5.2,��,5.3,65.2,0,0,0,0.5
2024-02-05T04:25:00+09:00,2.5,�k��,5.2,��,5.2,66,0,0,0,0.5
2024-02-05T04:26:00+09:00,2.5,�k�k��,5.2,��,5.1,66.9,0,0,0,0.5
2024-02-05T04:27:00+09:00,2.5,�k�k��,5.2,��,5,67.5,0,0,0,0.5
2024-02-05T04:28:00+09:00,2.4,�k�k��,5.2,��,5,68.1,0,0,0,0.5
2024-02-05T04:29:00+09:00,2.4,�k�k��,5.2,��,5.1,66.7,0,0,0,0.5
2024-02-05T04:30:00+09:00,2.3,�k��,5.2,��,5.3,65.8,0,0,0,0.5
2024-02-05T04:31:00+09:00,2.2,�k��,5.2,��,5.3,65.5,0,0,0,0.5
2024-02-05T04:32:00+09:00,2.1,�k�k��,3.6,�k�k��,5.2,66.5,0,0,0,0.5
2024-02-05T04:33:00+09:00,2.1,�k�k��,3.6,�k�k��,4.9,68.5,0,0,0,0.5
2024-02-05T04:34:00+09:00,2,�k�k��,3.6,�k�k��,5,68.5,0,0,0,0.5
2024-02-05T04:35:00+09:00,1.8,�k�k��,3.6,�k�k��,4.9,68.8,0,0,0,0.5
2024-02-05T04:36:00+09:00,1.7,�k�k��,3.6,�k�k��,4.9,69.4,0,0,0,0.5
2024-02-05T04:37:00+09:00,1.7,�k�k��,3.6,�k�k��,4.9,69.9,0,0,0,0.5
2024-02-05T04:38:00+09:00,1.5,�k�k��,3.2,�k��,4.8,70.5,0,0,0,0.5
2024-02-05T04:39:00+09:00,1.4,�k�k��,2.9,�k,4.8,70.3,0,0,0,0.5
2024-02-05T04:40:00+09:00,1.3,�k,2.9,�k,4.8,70.2,0,0,0,0.5
2024-02-05T04:41:00+09:00,1.3,�k,2.9,�k,4.9,69.2,0,0,0,0.5
2024-02-05T04:42:00+09:00,1.3,�k,2.9,�k,4.9,69.3,0,0,0,0.5
2024-02-05T04:43:00+09:00,1.2,�k,2.3,�k��,5,68.9,0,0,0,0.5
2024-02-05T04:44:00+09:00,1.2,�k�k��,2.3,�k��,5,68.8,0,0,0,0.5
2024-02-05T04:45:00+09:00,1.4,�k�k��,2.3,�k��,4.9,69.8,0,0,0,0.5
2024-02-05T04:46:00+09:00,1.5,�k�k��,2.3,�k��,4.8,70.7,0,0,0,0.5
2024-02-05T04:47:00+09:00,1.6,�k�k��,2.6,�k,4.8,70.7,0,0,0,0.5
2024-02-05T04:48:00+09:00,1.6,�k�k��,2.6,�k,4.7,71.1,0,0,0,0.5
2024-02-05T04:49:00+09:00,1.7,�k�k��,2.6,�k,4.9,69.6,0,0,0,0.5
2024-02-05T04:50:00+09:00,1.7,�k�k��,2.6,�k,5,68.9,0,0,0,0.5
2024-02-05T04:51:00+09:00,1.7,�k�k��,2.6,�k,5.1,68.1,0,0,0,0.5
2024-02-05T04:52:00+09:00,1.7,�k�k��,2.6,�k,5.2,67.7,0,0,0,0.5
2024-02-05T04:53:00+09:00,1.7,�k�k��,2.6,�k,5.2,67.6,0,0,0,0.5
2024-02-05T04:54:00+09:00,1.6,�k�k��,2.6,�k,5.2,67.2,0,0,0,0.5
2024-02-05T04:55:00+09:00,1.5,�k�k��,2.6,�k,5.2,67.4,0,0,0,0.5
2024-02-05T04:56:00+09:00,1.4,�k�k��,2.6,�k,5,68.7,0,0,0,0.5
2024-02-05T04:57:00+09:00,1.3,�k�k��,2.4,�k�k��,5,69.3,0,0,0,0.5
2024-02-05T04:58:00+09:00,1.2,�k�k��,2.4,�k�k��,4.9,69.8,0,0,0,0.5
2024-02-05T04:59:00+09:00,1.2,�k�k��,2.4,�k�k��,4.9,70.2,0,0,0,0.5
2024-02-05T05:00:00+09:00,1.3,�k�k��,2.4,�k�k��,4.8,70.4,0,0,0,0.5
2024-02-05T05:01:00+09:00,1.3,�k�k��,2.6,�k�k��,4.8,70.1,0,0,0,0.5
2024-02-05T05:02:00+09:00,1.3,�k�k��,2.6,�k�k��,4.9,69.6,0,0,0,0.5
2024-02-05T05:03:00+09:00,1.3,�k,2.6,�k�k��,4.9,70,0,0,0,0.5
2024-02-05T05:04:00+09:00,1.4,�k,2.6,�k�k��,4.8,70.4,0,0,0,0.5
2024-02-05T05:05:00+09:00,1.4,�k,2.6,�k�k��,4.8,70.7,0,0,0,0.5
2024-02-05T05:06:00+09:00,1.5,�k,2.6,�k�k��,4.8,71.2,0,0,0,0.5
2024-02-05T05:07:00+09:00,1.5,�k,2.6,�k�k��,4.7,71.6,0,0,0,0.5
2024-02-05T05:08:00+09:00,1.4,�k,2.6,�k�k��,4.6,72.2,0,0,0,0.5
2024-02-05T05:09:00+09:00,1.4,�k,2.6,�k�k��,4.6,72.4,0,0,0,0.5
2024-02-05T05:10:00+09:00,1.3,�k,2.6,�k�k��,4.7,72.4,0,0,0,0.5
2024-02-05T05:11:00+09:00,1.3,�k,2.3,�k�k��,4.7,72,0,0,0,0.5
2024-02-05T05:12:00+09:00,1.3,�k,2.4,�k�k��,4.7,71.5,0,0,0,0.5
2024-02-05T05:13:00+09:00,1.2,�k,2.4,�k�k��,4.8,71.1,0,0,0,0.5
2024-02-05T05:14:00+09:00,1.1,�k,2.4,�k�k��,4.7,71.5,0,0,0,0.5
2024-02-05T05:15:00+09:00,1.1,�k,2.4,�k�k��,4.7,71.5,0,0,0,0.5
2024-02-05T05:16:00+09:00,1.1,�k,2.4,�k�k��,4.7,71.6,0,0,0,0.5
2024-02-05T05:17:00+09:00,1.2,�k,2.4,�k�k��,4.7,72.2,0,0,0,0.5
2024-02-05T05:18:00+09:00,1.2,�k,2.4,�k�k��,4.7,72.2,0,0,0,0.5
2024-02-05T05:19:00+09:00,1.2,�k,2.4,�k�k��,4.8,70.9,0,0,0,0.5
2024-02-05T05:20:00+09:00,1.2,�k,2.4,�k�k��,4.8,70.7,0,0,0,0.5
2024-02-05T05:21:00+09:00,1.2,�k,2.4,�k�k��,4.8,71.4,0,0,0,0.5
2024-02-05T05:22:00+09:00,1.1,�k�k��,1.7,�k,4.7,72.2,0,0,0,0.5
2024-02-05T05:23:00+09:00,1.1,�k�k��,2.1,�k,4.7,72.8,0,0,0,0.5
2024-02-05T05:24:00+09:00,1.2,�k�k��,2.1,�k,4.7,72.8,0,0,0,0.5
2024-02-05T05:25:00+09:00,1.2,�k�k��,2.1,�k,4.6,73.1,0,0,0,0.5
2024-02-05T05:26:00+09:00,1.2,�k�k��,2.1,�k,4.5,73.9,0,0,0,0.5
2024-02-05T05:27:00+09:00,1.3,�k�k��,2.1,�k,4.5,74,0,0,0,0.5
2024-02-05T05:28:00+09:00,1.4,�k�k��,2.5,�k��,4.5,74.2,0,0,0,0.5
2024-02-05T05:29:00+09:00,1.5,�k�k��,2.5,�k��,4.5,74.3,0,0,0,0.5
2024-02-05T05:30:00+09:00,1.6,�k�k��,2.5,�k��,4.4,75.4,0,0,0,0.5
2024-02-05T05:31:00+09:00,1.7,�k�k��,2.5,�k��,4.3,76.5,0,0,0,0.5
2024-02-05T05:32:00+09:00,1.8,�k�k��,2.5,�k��,4.3,77.5,0,0,0,0.5
2024-02-05T05:33:00+09:00,1.8,�k�k��,2.5,�k��,4.3,78.4,0,0,0,0.5
2024-02-05T05:34:00+09:00,1.8,�k�k��,2.5,�k��,4.3,78.8,0,0,0,0.5
2024-02-05T05:35:00+09:00,1.8,�k�k��,2.5,�k��,4.2,79,0,0,0,0.5
2024-02-05T05:36:00+09:00,1.7,�k�k��,2.5,�k��,4.2,80,0,0,0,0.5
2024-02-05T05:37:00+09:00,1.6,�k�k��,2.5,�k��,4.2,80.2,0,0,0,0.5
2024-02-05T05:38:00+09:00,1.4,�k�k��,2.5,�k�k��,4.2,79.3,0,0,0,0.5
2024-02-05T05:39:00+09:00,1.3,�k�k��,2.5,�k�k��,4.4,78.1,0,0,0,0.5
2024-02-05T05:40:00+09:00,1.3,�k�k��,2.5,�k�k��,4.3,78.1,0,0,0,0.5
2024-02-05T05:41:00+09:00,1.2,�k�k��,2.5,�k�k��,4.2,78.7,0,0,0,0.5
2024-02-05T05:42:00+09:00,1.2,�k�k��,3.1,�k�k��,4.2,79.6,0,0,0,0.5
2024-02-05T05:43:00+09:00,1.2,�k�k��,3.1,�k�k��,4.2,79.1,0,0,0,0.5
2024-02-05T05:44:00+09:00,1.2,�k�k��,3.1,�k�k��,4.2,80.9,0,0,0,0.5
2024-02-05T05:45:00+09:00,1.2,�k�k��,3.1,�k�k��,4.2,81,0,0,0,0.5
2024-02-05T05:46:00+09:00,1.3,�k�k��,3.1,�k�k��,4.2,81.3,0,0,0,0.5
2024-02-05T05:47:00+09:00,1.3,�k�k��,3.1,�k�k��,4.1,81.7,0,0,0,0.5
2024-02-05T05:48:00+09:00,1.4,�k,3.1,�k�k��,4,82.4,0,0,0,0.5
2024-02-05T05:49:00+09:00,1.3,�k�k��,3.1,�k�k��,4.1,81.4,0,0,0,0.5
2024-02-05T05:50:00+09:00,1.3,�k,3.1,�k�k��,4.1,82.4,0,0,0,0.5
2024-02-05T05:51:00+09:00,1.3,�k,3.1,�k�k��,4.1,82.5,0,0,0,0.5
2024-02-05T05:52:00+09:00,1.3,�k,2.7,�k�k��,4.1,82,0,0,0,0.5
2024-02-05T05:53:00+09:00,1.2,�k,2.7,�k�k��,4.1,82.1,0,0,0,0.5
2024-02-05T05:54:00+09:00,1.2,�k,2.7,�k�k��,4,83,0,0,0,0.5
2024-02-05T05:55:00+09:00,1.2,�k,2.7,�k�k��,3.9,84,0,0,0,0.5
2024-02-05T05:56:00+09:00,1.3,�k,2.7,�k�k��,3.9,83.9,0,0,0,0.5
2024-02-05T05:57:00+09:00,1.3,�k,2.7,�k�k��,3.9,83.8,0,0,0,0.5
2024-02-05T05:58:00+09:00,1.4,�k,2.7,�k�k��,3.9,83.8,0,0,0,0.5
2024-02-05T05:59:00+09:00,1.4,�k,2.7,�k�k��,3.9,84.6,0,0,0,0.5
2024-02-05T06:00:00+09:00,1.5,�k,2.7,�k�k��,3.8,85,0,0,0,0.5
2024-02-05T06:01:00+09:00,1.5,�k,2.6,�k,3.8,85.3,0,0,0,0.5
2024-02-05T06:02:00+09:00,1.5,�k,2.6,�k,3.7,86.5,0,0,0,0.5
2024-02-05T06:03:00+09:00,1.5,�k,3.1,�k�k��,3.8,86.5,0,0,0,0.5
2024-02-05T06:04:00+09:00,1.5,�k,3.1,�k�k��,3.7,86.9,0.5,0.5,0.5,1
2024-02-05T06:05:00+09:00,1.5,�k,3.1,�k�k��,3.7,86.6,0.5,0.5,0.5,1
2024-02-05T06:06:00+09:00,1.5,�k,3.1,�k�k��,3.7,85.5,0.5,0.5,0.5,1
2024-02-05T06:07:00+09:00,1.5,�k,3.1,�k�k��,3.7,85.3,0.5,0.5,0.5,1
2024-02-05T06:08:00+09:00,1.5,�k�k��,3.1,�k�k��,3.7,85.6,0.5,0.5,0.5,1
2024-02-05T06:09:00+09:00,1.5,�k�k��,3.1,�k�k��,3.6,86.6,0.5,0.5,0.5,1
2024-02-05T06:10:00+09:00,1.5,�k�k��,3.1,�k�k��,3.6,86.6,0.5,0.5,0.5,1
2024-02-05T06:11:00+09:00,1.5,�k��,3.1,�k�k��,3.6,86.7,0.5,0.5,0.5,1
2024-02-05T06:12:00+09:00,1.5,�k��,3.1,�k�k��,3.5,86.9,0.5,0.5,0.5,1
2024-02-05T06:13:00+09:00,1.4,�k��,2.9,�k��,3.6,86.5,0.5,0.5,0.5,1
2024-02-05T06:14:00+09:00,1.5,�k��,2.9,�k��,3.5,87,0,0.5,0.5,1
2024-02-05T06:15:00+09:00,1.5,�k��,2.9,�k��,3.5,87.7,0,0.5,0.5,1
2024-02-05T06:16:00+09:00,1.4,�k��,2.4,�k,3.6,87.2,0,0.5,0.5,1
2024-02-05T06:17:00+09:00,1.2,�k��,2.2,���k��,3.7,88,0,0.5,0.5,1